FREGAT R/B, 40352

Orbit data source: Space-Track

FREGAT R/B, 40352 is space debris originally from a launch on Thu, 18 Dec 2014 UTC launched from the French Guiana (FRGUI). Debris objects in space refer to the collection of defunct objects orbiting the Earth. Examples of debris include non-operational satellites, rocket bodies, and fragments generated from explosions, collisions, or faulty payload assembly.

Loading next visibility...
Identifier
40352, 2014-083E
Orbit
Active
Country
Flag of CISCIS
Related business
Manufacturer
Lavochkin
Mission
Spacecraft
Bus & Motor
FREGAT, Unknown motor
Mass
1,050 kg wet, 1,050 kg dry
Launch date (UTC)
2014-12-18 (11 years ago)
Launch vehicle
Unknown
Launch site
French Guiana (FRGUI)
Object type
Payload
Rocket body
Debris
Shape & HBR
Irr, 1.6 m
Radar Cross Section
11.055 m², Large (>1 m²)

Expand to show TLE details & history
Last TLE update: 8 hours ago

TLE from 8 hours ago
0 FREGAT R/B
1 40352U 14083E   26123.17747786 -.00000020  00000-0  00000-0 0  9994
2 40352   0.0385 149.6449 0008631 209.9577   0.3979  5.20672891216339
Epoch: 2026-05-03T04:15Z
TLE epoch observation values (Epoch: 2026-05-03T04:15:34.087Z)
Latitude
-0.01443°
Longitude
75.02319°
Altitude
7,669.46 km
Speed
5.33 km/s
True Right ascension
23h 59m 59s
True Declination
0° 00' 52"
Sunlit
Object was in daylight at epoch
Visualization orbit readout
Latitude
Unknown
Longitude
Unknown
Altitude
Unknown
Speed
Unknown
Apparent Right ascension
Unknown
Apparent Declination
Unknown
Sunlit
N/A
Visualization observer readout
Local Sidereal Time
20:18:44
Azimuth
Unknown
Elevation
Unknown
Doppler factor
Unknown
Orbital elements
Apogee altitude
7,698.434 km
Perigee altitude
7,674.156 km
Semi-major axis
14,064.432 km
Eccentricity
0.00086
Inclination
0.0385°
RAAN
149.6449°
Arg. of periapsis
209.9577°
True anomaly
0.39859°
Mean anomaly
0.3979°
Eccentric anomaly
0.39824°
Mean motion
1.30125 °/min
Orbital period
276.66 mins
BSTAR
0
Loading maneuver chart data...
Computing Atmospheric mass density...
Loading historical data...
Loading historical data...
Loading historical data...
Loading historical data...
Loading historical data...
Loading historical data...
Loading historical data...
Other satellites on launch #83 in the year 2014 (2014-12-18 UTC)

Documentation

Showing up to 5 results
|